Simultaneous Nadir Overpasses (SNOs) Predictions

Prediction of SNOs between GOES-15 and METOP-A Satellite Orbit:

Table of predicted SNOs for the next 14.0 days since TLE Epoch: 2/4/2022
Index Date Time (GOES-15) GOES-15 Lat,Lon METOP-A Lat,Lon Distance(km) Time Diff (sec)
1 02/06/2022 04:33:52 -0.00,-128.18 0.28,-126.95 139.87 80
2 02/06/2022 16:49:11 0.00,-128.20 0.54,-130.63 277.41 80
3 02/09/2022 04:35:36 0.00,-128.14 0.19,-127.22 103.58 80
4 02/09/2022 16:51:01 -0.00,-128.16 0.62,-130.94 316.99 80
5 02/12/2022 04:37:17 -0.00,-128.08 0.10,-127.49 66.88 80
6 02/12/2022 16:52:52 0.00,-128.10 0.68,-131.25 357.75 80
7 02/15/2022 04:38:58 -0.00,-128.02 0.05,-127.76 29.63 80
8 02/15/2022 16:54:42 0.00,-128.04 0.77,-131.55 399.45 80
9 02/17/2022 16:21:00 -0.00,-127.99 -0.91,-123.94 461.61 80
10 02/18/2022 04:37:56 0.00,-127.95 -0.02,-128.02 7.62 80
11 02/18/2022 16:53:51 -0.00,-127.97 0.83,-131.85 441.64 80
